Погода Тангуй

Погода Тангуй : погода сейчас, прогноз погоды и архив. Всё, что Вы хотите узнать о погоде Тангуй!

Хотите узнать прогноз погоды Тангуй? Тогда Вам сюда: Погода Тангуй

Поиск расширенной информации на нашем сайте:

Другие новости

Новости СМИ2

Главная страница сайта

Новости сайта

02.10.2013

Напоминаем, что на нашем новом сайте вы можете получить высокодетализированные прогнозы погоды по пунктам России, СНГ и мира (включающие важные для авиации метеовеличины, такие как направление и скорость ветра, видимость, явления погоды, количество и форма облачности, нижняя и верхняя граница облачности), а также ознакомиться с разнообразными материалами по авиационной метеорологии и подборкой полезных ссылок на эту тему.

Сайт Метеоцентр.Азия посвящён разработке технологий оптимизации авиаметеорологического обслуживания, включая проектирование и перспективное создание нескольких автоматизированных авиаметеорологических систем:
- система выпуска высокодетальных прогностических карт явлений погоды для нижнего воздушного пространства по России и ближнему зарубежью;
- система верификации прогнозов TAF (выпускаемых синоптиками официальных АМСГ РФ и ближнего зарубежья) и AUTOTAF (выпускаемых сайтом Метеоцентр.Азия) - выявление ошибок, онлайн-сопоставление с фактической погодой METAR, автоматическое внесение коррективов в прогнозы при резком отклонении фактической погоды от прогноза, подсчёт оправдываемости прогнозов по элементам и в целом;
- система обработки, анализа и отображения авиаметеорологической информации для применения провайдерами метеорологической информации.

Рекомендуем: Кровотечение после пиявок все о пиявках как долго может продолжаться Кровотечение.

Погода Тангуй - сегодня

Время (UTC), дата Ветер
(°,м/с) 
Видим.   Явления Облачность Т
(°С)
Тd
(°С)
f(%) Тe
(°С)
Pmin
(гПа)
dP
(гПа)
Po
(мм)
O2
(г/м3)
Тmin Tmax R s Состояние
почвы
09 24.05.17 260 (З) 20000 м    3/0 верхняя 
[Ci fib]
+32.1 +0.9 14 +32  999.1  -1.9  715  258           
12 24.05.17 300 (СЗ) 20000 м    10/0 верхняя 
[Ci fib]
+30.5 +0.3 14 +31  999.2  -0.1  715  259    +32.8       
15 24.05.17 300 (СЗ) н/о    10/0 средняя, верхняя 
[Ac trans|Ci fib]
+24.8 +5 28 +25  1002.2  716  264           
18 24.05.17 тихо ()   н/о    10/0 верхняя 
[Ci fib]
+18.9 +6.9 46 +19  1003.9  0.7  717  269           
21 24.05.17 тихо ()   20000 м    10/0 средняя, верхняя 
[Ac trans|Ci fib]
+17.8 +5.6 45 +18  1005.1  718  271           
00 25.05.17 230 (ЮЗ) 20000 м    10/5 600 м кучево-дожд., средняя, верхняя 
[Cb cap|Ac trans|Ci fib]
+16.9 +8.7 58 +18  1006.3  719  271  +16.4        сухая 
03 25.05.17 250 (З) 20000 м    3/1 1000 м верхняя 
[Cu hum|Ci fib]
+25.3 +7.5 32 +25  1003.4  -1.5  717  263           
06 25.05.17 260 (З) 20000 м    10/3 1000 м верхняя 
[Cu hum|Ci fib]
+27.8 +6.6 26 +28  1001.3  -1.6  716  261           
09 25.05.17 310 (СЗ) 20000 м    10/5 600 м кучево-дожд., средняя, верхняя 
[Cb cap|Ac trans|Ci fib]
+28.1 +5.1 23 +28  1000.2  -1  715  261           
12 25.05.17 320 (СЗ) 3{13}  20000 м    10/0 средняя, верхняя 
[Ac trans|Cs]
+20.3 +6.2 40 +20  1004.6  718  268    +29.5       
15 25.05.17 250 (З) н/о  слаб. ливневой дождь  10/4 600 м кучево-дожд., средняя, верхняя 
[Cb cap|Ac trans|Ci fib]
+13.6 +11 84 +18  1008.6  2.8  720  274           
18 25.05.17 270 (З) н/о  {ливн. осадки}  10/0 средняя, верхняя 
[Ac trans|Ci fib]
+11.3 +10 92 +14  1011  1.9  721  277           
21 25.05.17 330 (СЗ) 20000 м    10/0 средняя, верхняя 
[Ac trans|Ci fib]
+10.6 +4.9 68 +12  1013.2  1.9  723  279           
00 26.05.17 340 (С) 20000 м    10/0 средняя, верхняя 
[Ac trans|Cs]
+11.4 +1.6 51 +13  1013.7  0.5  723  279  +9.4    0.4    сухая 
03 26.05.17 240 (ЮЗ) 20000 м    9/0 средняя 
[Ac trans]
+14.1 +1.1 41 +15  1012.9  -0.3  723  277           
06 26.05.17 230 (ЮЗ) 20000 м    8/0 средняя 
[Ac trans]
+14.2 +2 44 +15  1011.8  -1  722  276           
09 26.05.17 220 (ЮЗ) 20000 м    9/5 600 м кучево-дожд., средняя 
[Cb cap|Ac trans]
+15.8 +4 45 +16  1009.2  -2.2  720  274           
12 26.05.17 330 (СЗ) 3{12}  20000 м  гроза, ливневой дождь  10/10 600 м кучево-дожд. 
[Cb cap]
+9.1 +6.8 85 +9  1012.5  2.1  722  280    +17.5  0.0     
15 26.05.17 300 (СЗ) н/о  {гроза, ливн. осадки}  6/3 600 м кучево-дожд., средняя 
[Cb cap|Ac trans]
+8.8 +5 77 +10  1014.1  1.4  723  281           
18 26.05.17 330 (СЗ) н/о  {гроза, ливн. осадки}  1/0 средняя 
[Ac trans]
+6.3 +1.9 73 +6  1016.9  2.2  725  285           
21 26.05.17 280 (З) 20000 м    3/0 средняя 
[Ac trans]
+4.5 +0 73 +4  1019.3  1.9  726  288           
00 27.05.17 270 (З) 20000 м    4/4 600 м 
[Sc]
+5.1 -1.2 64 +5  1021.6  2.3  728  288  +3.5    0.1    влажная 
03 27.05.17 300 (СЗ) 20000 м    8/8 300 м 
[St]
+7.8 -2.7 47 +8  1022.7  1.5  729  286           
06 27.05.17 290 (З) 20000 м    9/9 600 м кучево-дожд. 
[Cb cap]
+9.5 -2.1 44 +10  1023.5  730  284           
09 27.05.17 310 (СЗ) 2{10}  20000 м    6/6 600 м 
[Cu Sc]
+11.5 -3.9 34 +12  1023.3  0.2  730  283           
Время (UTC), дата Ветер
(°,м/с) 
Видим.   Явления Облачность Т
(°С)
Тd
(°С)
f(%) Тe
(°С)
Pmin
(гПа)
dP
(гПа)
Po
(мм)
O2
(г/м3)
Тmin Tmax R s Состояние
почвы

Для получения пояснительной информации подведите курсор к названию столбца.

ПОГОДА Тангуй - архив

Всё, что Вы хотите узнать о погоде Тангуй - удобно и подробно!

Выберите нужную дату (начиная с 1 января 2015* года) и нажмите кнопку "Найти".
Будут отображены архивные сводки погоды по пункту Тангуй, начиная с указанной даты.


Отображать данные в формате CSV (для использования в таблицах Excel)


Внимание! Наш архив погоды предназначен исключительно для личного некоммерческого использования в познавательных целях. Если Вам необходимы официальные справки о состоянии погоды (для производственных, юридических, коммерческих и т.п. целей), обращайтесь в органы Росгидромета.

*Примечание: данная дата относится к архиву по метеостанциям СССР (Россия, СНГ, Балтия).
Архив по метеостанциям Зарубежной Европы и Азии (кроме Китая) хранится 10 дней, по другим регионам земного шара (Китай, Африка, Америка, Австралия, Океания) - 1 день.

Тангуй - район местоположения метеостанции


Название, широта, долгота, высота метеостанции:
Тангуй 55.4°ш. 101°д. 423 м над ур. моря [Российская Федерация]

Дополнительная информация

В oтличие oт бoльшинства пoгoдных сайтoв мы публикуем пoдрoбную метеoинфoрмацию в детальнoм прoфессиoнальнoм фoрмате.

Характеристики температуры и влажнoсти вoздуха измеряются на высoте 2 м в тени вдали oт зданий и деревьев.
Скoрoсть ветра измеряется на высoте 10 м (на урoвне рoста челoвека скoрoсть ветра ниже в 1.5-2 раза). Если метеoстанция нахoдится в гoрoде или в лесу, тo скoрoсть ветра занижена на 2-4 м/с пo сравнению с oткрытым местoм. Скoрoсть ветра над акватoриями крупных рек и oзёр, а также на вершинах хoлмoв на 2-5 м/с выше, чем в oбычных услoвиях.
Атмoсфернoе давление в разных тoчках местнoсти мoжет значительнo oтличаться oт давления на метеoстанции, в зависимoсти oт услoвий рельефа (при пoдъёме на 10 м давление пoнижается примернo на 1 мм рт.ст.).